Washington, NE

9:10 PM CDT on August 30, 2016 (GMT -0500)
Blair Municipal

Weather History for KBTA - January, 2014

Change the Weather History Date:

Monday, January 6, 2014

  Actual Average (KOMA) Record (KOMA)
Temperature  
Mean Temperature -4 °F 23 °F  
Max Temperature 4 °F 33 °F 59 °F (1933)
Min Temperature -12 °F 14 °F -22 °F (1887)
Degree Days  
Heating Degree Days 69 42  
Month to date heating degree days 252  
Since 1 July heating degree days 2731  
Cooling Degree Days 0 0  
Month to date cooling degree days 0  
Year to date cooling degree days 0  
Moisture  
Dew Point -15 °F    
Average Humidity 60    
Maximum Humidity 70    
Minimum Humidity 49    
Precipitation  
Precipitation 0.00 in 0.02 in 0.25 in (1884)
Month to date precipitation 0.13  
Year to date precipitation 0.13  
Snow  
Snow 0.00 in 0.20 in - ()
Month to date snowfall 1.1  
Since 1 July snowfall 10.1  
Snow Depth -    
Sea Level Pressure  
Sea Level Pressure 30.38 in    
Wind  
Wind Speed 9 mph (West)    
Max Wind Speed 20 mph    
Max Gust Speed 25 mph    
Visibility 10 miles    
Events      
T = Trace of Precipitation, MM = Missing Value Source: NWS Daily Summary

Daily Weather History Graph

Daily Weather History Graph

Search for Another Location

Airport or City:

Trip Planner

Search our weather history database for the weather conditions in past years. The results will help you decide how hot, cold, wet, or windy it might be!

Date:

Astronomy

Jan. 06, 2014 Rise Set
Actual Time 7:50 AM CST 5:10 PM CST
Civil Twilight 7:19 AM CST 5:41 PM CST
Nautical Twilight 6:45 AM CST 6:15 PM CST
Astronomical Twilight 6:11 AM CST 6:49 PM CST
Moon 11:02 AM CST (1/6) 11:49 PM CST (1/6)
Length of Visible Light 10h 21m
Length of Day
9h 19m
Waxing Crescent, 35% of the Moon is Illuminated
Jan 6
Waxing Crescent
Jan 7
First Quarter
Jan 15
Full
Jan 23
Last Quarter
Jan 30
New

Hourly Weather History & Observations

Time (CST) Temp. Windchill Dew Point Humidity Pressure Visibility Wind Dir Wind Speed Gust Speed Precip Events Conditions
3:15 AM -10.1 °F -30.7 °F -21.3 °F 58% 30.44 in 10.0 mi NW 12.7 mph 18.4 mph N/A   Clear
3:35 AM -10.3 °F -30.0 °F -21.3 °F 58% 30.44 in 10.0 mi WNW 11.5 mph 18.4 mph N/A   Clear
3:55 AM -10.7 °F -28.4 °F -21.5 °F 59% 30.44 in 10.0 mi WNW 9.2 mph - N/A   Clear
4:15 AM -10.7 °F -28.4 °F -21.1 °F 60% 30.44 in 10.0 mi WNW 9.2 mph - N/A   Mostly Cloudy
4:35 AM -11.4 °F -25.1 °F -21.1 °F 62% 30.43 in 10.0 mi West 5.8 mph - N/A   Scattered Clouds
4:55 AM -12.1 °F -28.9 °F -21.1 °F 64% 30.43 in 10.0 mi WNW 8.1 mph - N/A   Clear
5:15 AM -11.7 °F -27.1 °F -20.7 °F 64% 30.43 in 10.0 mi WNW 6.9 mph - N/A   Clear
5:35 AM -11.7 °F -28.5 °F -20.2 °F 66% 30.43 in 10.0 mi WNW 8.1 mph - N/A   Clear
5:55 AM -11.6 °F -25.3 °F -20.2 °F 66% 30.43 in 10.0 mi WNW 5.8 mph - N/A   Scattered Clouds
6:15 AM -11.4 °F -29.3 °F -20.0 °F 66% 30.43 in 10.0 mi WNW 9.2 mph - N/A   Clear
6:35 AM -11.2 °F -29.0 °F -19.7 °F 66% 30.43 in 10.0 mi WNW 9.2 mph - N/A   Clear
6:55 AM -11.4 °F -26.7 °F -19.8 °F 66% 30.43 in 10.0 mi WNW 6.9 mph - N/A   Clear
7:15 AM -11.9 °F -27.3 °F -19.8 °F 68% 30.44 in 10.0 mi NW 6.9 mph - N/A   Clear
7:35 AM -12.1 °F -25.9 °F -19.7 °F 69% 30.44 in 5.0 mi WNW 5.8 mph - N/A   Haze
7:55 AM -12.3 °F -26.1 °F -19.7 °F 70% 30.44 in 10.0 mi WNW 5.8 mph - N/A   Scattered Clouds
8:15 AM -12.3 °F -24.2 °F -19.7 °F 70% 30.45 in 10.0 mi WNW 4.6 mph - N/A   Clear
8:35 AM -12.1 °F -25.9 °F -19.7 °F 69% 30.45 in 10.0 mi WNW 5.8 mph - N/A   Clear
8:55 AM -11.0 °F -22.8 °F -18.4 °F 70% 30.46 in 7.0 mi WNW 4.6 mph - N/A   Scattered Clouds
9:15 AM -9.8 °F -26.1 °F -17.5 °F 69% 30.46 in 10.0 mi West 8.1 mph - N/A   Scattered Clouds
9:35 AM -8.5 °F -23.2 °F -16.2 °F 69% 30.46 in 2.5 mi WNW 6.9 mph - N/A   Haze
9:55 AM -7.2 °F -27.1 °F -16.4 °F 64% 30.45 in 10.0 mi WNW 12.7 mph 17.3 mph N/A   Scattered Clouds
10:15 AM -6.7 °F -27.9 °F -15.7 °F 65% 30.45 in 10.0 mi WNW 15.0 mph - N/A   Clear
10:35 AM -5.4 °F -27.0 °F -15.5 °F 62% 30.45 in 10.0 mi WNW 16.1 mph 21.9 mph N/A   Scattered Clouds
10:55 AM -4.5 °F -27.7 °F -15.9 °F 58% 30.46 in 10.0 mi WNW 19.6 mph 24.2 mph N/A   Mostly Cloudy
11:15 AM -4.2 °F -25.4 °F -16.2 °F 56% 30.45 in 10.0 mi WNW 16.1 mph 25.3 mph N/A   Mostly Cloudy
11:35 AM -3.6 °F -22.5 °F -14.6 °F 59% 30.44 in 10.0 mi West 12.7 mph 19.6 mph N/A   Overcast
11:55 AM -3.1 °F -25.3 °F -15.7 °F 55% 30.43 in 10.0 mi WNW 18.4 mph 25.3 mph N/A   Mostly Cloudy
12:15 PM -2.2 °F -22.2 °F -15.2 °F 54% 30.42 in 10.0 mi NW 15.0 mph 23.0 mph N/A   Mostly Cloudy
12:35 PM -1.7 °F -22.8 °F -15.5 °F 52% 30.41 in 10.0 mi NW 17.3 mph 24.2 mph N/A   Mostly Cloudy
12:55 PM -1.3 °F -22.3 °F -15.0 °F 52% 30.40 in 10.0 mi WNW 17.3 mph 23.0 mph N/A   Mostly Cloudy
1:15 PM -0.4 °F -18.4 °F -13.4 °F 54% 30.40 in 10.0 mi West 12.7 mph 24.2 mph N/A   Overcast
1:35 PM 0.1 °F -17.7 °F -13.4 °F 53% 30.39 in 10.0 mi West 12.7 mph 20.7 mph N/A   Mostly Cloudy
1:55 PM 0.5 °F -16.5 °F -12.5 °F 55% 30.39 in 10.0 mi WNW 11.5 mph 18.4 mph N/A   Overcast
2:15 PM 0.9 °F -16.0 °F -11.9 °F 55% 30.38 in 10.0 mi WNW 11.5 mph 17.3 mph N/A   Overcast
2:35 PM 1.6 °F -15.1 °F -11.0 °F 56% 30.38 in 10.0 mi West 11.5 mph 18.4 mph N/A   Overcast
2:55 PM 2.3 °F -16.4 °F -10.8 °F 54% 30.38 in 10.0 mi WNW 15.0 mph - N/A   Mostly Cloudy
3:15 PM 3.2 °F -11.3 °F -10.3 °F 54% 30.38 in 10.0 mi West 9.2 mph - N/A   Overcast
3:35 PM 3.7 °F -13.9 °F -11.0 °F 50% 30.38 in 10.0 mi West 13.8 mph 19.6 mph N/A   Mostly Cloudy
3:55 PM 4.1 °F -11.1 °F -10.8 °F 50% 30.38 in 10.0 mi WNW 10.4 mph 16.1 mph N/A   Clear
4:15 PM 4.1 °F -11.1 °F -10.8 °F 50% 30.37 in 10.0 mi West 10.4 mph 17.3 mph N/A   Clear
4:35 PM 4.1 °F -10.2 °F -11.2 °F 49% 30.37 in 10.0 mi WNW 9.2 mph 17.3 mph N/A   Clear
4:55 PM 3.7 °F -10.6 °F -11.4 °F 50% 30.36 in 10.0 mi West 9.2 mph - N/A   Clear
5:15 PM 2.5 °F -11.1 °F -11.7 °F 52% 30.35 in 10.0 mi WNW 8.1 mph - N/A   Clear
5:35 PM 1.4 °F -8.3 °F -12.1 °F 53% 30.34 in 10.0 mi West 4.6 mph - N/A   Clear
5:55 PM 1.2 °F -6.4 °F -12.3 °F 53% 30.34 in 10.0 mi West 3.5 mph - N/A   Clear
6:15 PM 1.2 °F - -12.3 °F 53% 30.34 in 10.0 mi Calm Calm - N/A   Clear
6:35 PM 0.5 °F - -12.5 °F 55% 30.33 in 10.0 mi Calm Calm - N/A   Clear
6:55 PM 0.7 °F - -12.6 °F 54% 30.33 in 10.0 mi Calm Calm - N/A   Clear
7:15 PM -0.6 °F - -13.0 °F 56% 30.34 in 10.0 mi Calm Calm - N/A   Clear
7:35 PM -0.4 °F - -12.5 °F 57% 30.33 in 10.0 mi Calm Calm - N/A   Clear
7:55 PM -2.0 °F -10.1 °F -13.0 °F 60% 30.33 in 10.0 mi SW 3.5 mph - N/A   Clear
8:15 PM -0.4 °F - -12.3 °F 57% 30.32 in 10.0 mi Calm Calm - N/A   Clear
8:35 PM -2.4 °F -10.6 °F -12.8 °F 61% 30.31 in 10.0 mi SW 3.5 mph - N/A   Clear
8:55 PM -3.1 °F -11.4 °F -13.5 °F 61% 30.30 in 10.0 mi SSW 3.5 mph - N/A   Clear
9:15 PM -3.5 °F -11.8 °F -13.2 °F 63% 30.30 in 10.0 mi South 3.5 mph - N/A   Clear
9:35 PM -4.0 °F - -13.2 °F 65% 30.31 in 10.0 mi Calm Calm - N/A   Clear
9:55 PM -4.2 °F -12.6 °F -13.2 °F 65% 30.30 in 10.0 mi South 3.5 mph - N/A   Clear
10:15 PM -4.0 °F -12.4 °F -12.8 °F 66% 30.29 in 10.0 mi SSW 3.5 mph - N/A   Clear
10:35 PM -3.5 °F -13.9 °F -12.3 °F 66% 30.28 in 10.0 mi SSW 4.6 mph - N/A   Clear
10:55 PM -3.1 °F -11.4 °F -12.1 °F 65% 30.27 in 10.0 mi SSW 3.5 mph - N/A   Clear
11:15 PM -3.1 °F -11.4 °F -12.5 °F 64% 30.26 in 10.0 mi South 3.5 mph - N/A   Clear
11:35 PM -4.2 °F -14.8 °F -12.5 °F 68% 30.25 in 10.0 mi SSW 4.6 mph - N/A   Clear
11:55 PM -3.5 °F -11.8 °F -11.4 °F 69% 30.25 in 10.0 mi South 3.5 mph - N/A   Clear